N8VIM Weather Reports


time (UTC)temp
C
wind
direction
speed
KPH
gust
KPH
rain 1hr
cm
rain 24hr
cm
rain mn
cm
humidity
%
barometer
mb
20260506131013 18 221 9.7 24.1 319.79 0.00 0.00 72 1009.8
20260506130513 17 195 6.4 14.5 319.79 0.00 0.00 73 1009.8
20260506130016 17 201 4.8 27.4 319.79 0.00 0.00 72 1009.8
20260506125513 17 169 9.7 25.7 319.79 0.00 0.00 73 1009.7
20260506124517 17 208 9.7 25.7 319.79 0.00 0.00 73 1009.8
20260506124013 17 177 12.9 29.0 319.79 0.00 0.00 72 1009.8
20260506123513 17 200 16.1 24.1 319.79 0.00 0.00 72 1009.7
20260506123014 17 197 6.4 25.7 319.79 0.00 0.00 73 1009.6
20260506122514 17 179 8.0 24.1 319.79 0.00 0.00 75 1009.4
20260506121519 17 232 9.7 20.9 319.79 0.00 0.00 75 1009.6
20260506120513 16 205 16.1 30.6 319.79 0.00 0.00 75 1010.0
20260506120014 16 188 9.7 20.9 319.79 0.00 0.00 76 1009.8
20260506115514 16 224 6.4 16.1 319.79 0.00 0.00 77 1009.8
20260506114515 16 195 11.3 17.7 319.79 0.00 0.00 79 1010.0
20260506114013 16 233 9.7 14.5 319.79 0.00 0.00 79 1010.0
20260506113513 16 169 4.8 17.7 319.79 0.00 0.00 78 1010.0
20260506113014 16 172 6.4 19.3 319.79 0.00 0.00 79 1010.1
20260506112513 16 204 12.9 17.7 319.79 0.00 0.00 79 1010.0
20260506112013 16 207 8.0 17.7 319.79 0.00 0.00 79 1010.2
20260506111514 16 181 9.7 17.7 319.79 0.00 0.00 79 1010.2
20260506110513 16 211 4.8 19.3 319.79 0.00 0.00 80 1010.3
20260506110014 15 174 9.7 17.7 319.79 0.00 0.00 79 1010.0
20260506105013 15 240 3.2 16.1 319.79 0.00 0.00 81 1010.1
20260506104514 15 193 6.4 17.7 319.79 0.00 0.00 81 1010.2
20260506104013 15 219 8.0 22.5 319.79 0.00 0.00 81 1010.2
20260506103014 15 207 9.7 17.7 319.79 0.00 0.00 81 1010.1
20260506102014 15 249 9.7 12.9 319.79 0.00 0.00 81 1010.1
20260506101514 15 191 6.4 19.3 319.79 0.00 0.00 81 1010.0
20260506101013 15 197 9.7 20.9 319.79 0.00 0.00 81 1010.0
20260506100017 15 207 9.7 17.7 319.79 0.00 0.00 80 1010.1
20260506095513 15 214 11.3 17.7 319.79 0.00 0.00 80 1010.1
20260506094514 15 228 4.8 16.1 319.79 0.00 0.00 81 1010.0
20260506094013 15 205 1.6 14.5 319.79 0.00 0.00 80 1010.1
20260506093513 15 212 3.2 17.7 319.79 0.00 0.00 80 1009.9
20260506093016 15 191 11.3 17.7 319.79 0.00 0.00 80 1009.9
20260506091514 15 162 4.8 19.3 319.79 0.00 0.00 80 1010.1
20260506091013 15 135 9.7 16.1 319.79 0.00 0.00 80 1010.0
20260506090513 15 218 4.8 20.9 319.79 0.00 0.00 80 1009.9
20260506090014 15 191 6.4 16.1 319.79 0.00 0.00 80 1010.0
20260506085513 15 205 6.4 16.1 319.79 0.00 0.00 79 1010.0
20260506085013 15 233 8.0 17.7 319.79 0.00 0.00 79 1010.0
20260506084514 15 183 8.0 16.1 319.79 0.00 0.00 79 1010.0
20260506084013 15 179 8.0 16.1 319.79 0.00 0.00 78 1010.1
20260506083514 15 224 3.2 12.9 319.79 0.00 0.00 78 1010.1
20260506083014 15 255 4.8 12.9 319.79 0.00 0.00 78 1010.1
20260506082513 15 197 1.6 14.5 319.79 0.00 0.00 78 1010.0
20260506082013 15 166 4.8 14.5 319.79 0.00 0.00 77 1010.0
20260506081514 15 191 3.2 11.3 319.79 0.00 0.00 77 1010.0
20260506081013 15 179 4.8 16.1 319.79 0.00 0.00 77 1010.0
20260506080514 15 183 6.4 12.9 319.79 0.00 0.00 76 1010.0
20260506073513 15 188 11.3 14.5 319.79 0.00 0.00 76 1010.0
20260506073013 15 204 8.0 14.5 319.79 0.00 0.00 75 1010.0
20260506072513 15 222 6.4 14.5 319.79 0.00 0.00 74 1010.0
20260506072013 15 153 6.4 14.5 319.79 0.00 0.00 73 1009.9
20260506071513 15 225 8.0 14.5 319.79 0.00 0.00 73 1009.9
20260506071013 16 173 6.4 9.7 319.79 0.00 0.00 73 1009.9
20260506070513 16 169 3.2 11.3 319.79 0.00 0.00 72 1009.8
20260506062513 16 146 6.4 14.5 319.79 0.00 0.00 68 1009.7
20260506062013 16 231 8.0 12.9 319.79 0.00 0.00 68 1009.7
20260506061513 16 211 3.2 16.1 319.79 0.00 0.00 68 1009.7
20260506061013 16 214 6.4 16.1 319.79 0.00 0.00 68 1009.6
20260506060705 16 212 4.8 14.5 319.79 0.00 0.00 68 1009.5
20260506060513 16 243 4.8 14.5 319.79 0.00 0.00 68 1009.6
20260506051013 16 129 6.4 22.5 319.79 0.00 0.00 67 1009.8
20260506050513 16 172 4.8 12.9 319.79 0.00 0.00 67 1010.0
20260506045013 16 176 6.4 16.1 319.79 0.00 0.00 67 1010.0
20260506044513 16 186 4.8 14.5 319.79 0.00 0.00 67 1010.0
20260506044012 16 212 4.8 11.3 319.79 0.00 0.00 67 1010.0
20260506043512 16 222 1.6 14.5 319.79 0.00 0.00 67 1010.1
20260506043013 16 205 6.4 14.5 319.79 0.00 0.00 66 1010.1
20260506042512 16 218 4.8 14.5 319.79 0.00 0.00 67 1010.1
20260506042012 16 197 3.2 11.3 319.79 0.00 0.00 67 1010.0
20260506041513 16 211 4.8 11.3 319.79 0.00 0.00 66 1010.0
20260506041012 16 203 3.2 11.3 319.79 0.00 0.00 66 1010.0
20260506040512 16 181 4.8 11.3 319.79 0.00 0.00 65 1010.1
20260506040013 16 211 4.8 11.3 319.79 0.00 0.00 65 1010.1
20260506035512 16 183 3.2 6.4 319.79 0.00 0.00 64 1010.1
20260506035015 17 169 3.2 9.7 319.79 0.00 0.00 64 1010.1
20260506034513 17 217 4.8 12.9 319.79 0.00 0.00 63 1010.1
20260506034012 17 158 4.8 19.3 319.79 0.00 0.00 63 1010.0
20260506033512 17 204 4.8 12.9 319.79 0.00 0.00 62 1010.0
20260506033013 17 170 6.4 11.3 319.79 0.00 0.00 62 1010.1
20260506032512 17 215 4.8 12.9 319.79 0.00 0.00 62 1010.0
20260506032012 17 207 3.2 19.3 319.79 0.00 0.00 61 1010.0
20260506031012 17 210 6.4 19.3 319.79 0.00 0.00 61 1010.0
20260506030515 17 201 11.3 24.1 319.79 0.00 0.00 60 1010.0
20260506030014 17 159 6.4 19.3 319.79 0.00 0.00 60 1010.0
20260506025512 18 181 11.3 22.5 319.79 0.00 0.00 59 1010.0
20260506025012 18 218 8.0 20.9 319.79 0.00 0.00 60 1010.0
20260506024513 18 158 3.2 24.1 319.79 0.00 0.00 59 1010.0
20260506024012 18 177 8.0 19.3 319.79 0.00 0.00 59 1010.0
20260506023512 18 212 8.0 20.9 319.79 0.00 0.00 59 1009.9
20260506023013 18 198 4.8 16.1 319.79 0.00 0.00 58 1009.9
20260506022512 18 153 9.7 16.1 319.79 0.00 0.00 58 1009.9
20260506021513 18 226 6.4 14.5 319.79 0.00 0.00 57 1009.9
20260506021012 18 219 6.4 14.5 319.79 0.00 0.00 57 1009.9
20260506020512 19 201 6.4 11.3 319.79 0.00 0.00 56 1010.0
20260506020013 19 198 1.6 16.1 319.79 0.00 0.00 55 1010.0
20260506015512 19 180 8.0 12.9 319.79 0.00 0.00 54 1009.9
20260506014513 20 257 4.8 14.5 319.79 0.00 0.00 53 1009.9
20260506014012 20 214 3.2 14.5 319.79 0.00 0.00 53 1009.8
20260506013512 20 205 6.4 11.3 319.79 0.00 0.00 52 1009.8
20260506013013 20 186 1.6 12.9 319.79 0.00 0.00 52 1009.8
20260506012512 20 180 4.8 16.1 319.79 0.00 0.00 51 1009.8
20260506011513 20 226 11.3 11.3 319.79 0.00 0.00 50 1009.7
20260506011012 20 228 4.8 9.7 319.79 0.00 0.00 49 1009.7
20260506010512 21 218 3.2 6.4 319.79 0.00 0.00 49 1009.7
20260506010013 21 274 3.2 12.9 319.79 0.00 0.00 49 1009.5
20260506005512 21 187 3.2 22.5 319.79 0.00 0.00 49 1009.2
20260506005012 21 229 6.4 24.1 319.79 0.00 0.00 48 1009.1
20260506004513 21 180 12.9 27.4 319.79 0.00 0.00 48 1009.1
20260506004012 21 211 8.0 17.7 319.79 0.00 0.00 48 1009.0
20260506003512 21 167 8.0 17.7 319.79 0.00 0.00 48 1008.9
20260506003013 21 194 6.4 24.1 319.79 0.00 0.00 48 1008.7
20260506002512 21 142 6.4 20.9 319.79 0.00 0.00 47 1008.6
20260506002012 21 153 8.0 19.3 319.79 0.00 0.00 47 1008.4
20260506001513 21 172 9.7 25.7 319.79 0.00 0.00 46 1008.4
20260506001012 22 150 16.1 27.4 319.79 0.00 0.00 46 1008.0
20260506000512 22 173 6.4 33.8 319.79 0.00 0.00 46 1008.0
20260506000013 22 197 11.3 27.4 319.79 0.00 0.00 45 1008.0
20260505235512 22 180 11.3 24.1 319.79 0.00 0.00 44 1007.9
20260505235012 22 208 12.9 22.5 319.79 0.00 0.00 44 1007.9
20260505234513 22 148 11.3 29.0 319.79 0.00 0.00 44 1007.8
20260505234012 22 170 16.1 24.1 319.79 0.00 0.00 43 1007.7
20260505233013 23 211 9.7 33.8 319.79 0.00 0.00 43 1007.5
20260505232012 23 167 14.5 32.2 319.79 0.00 0.00 42 1007.4
20260505231513 23 211 6.4 33.8 319.79 0.00 0.00 42 1007.4
20260505231012 23 162 14.5 24.1 319.79 0.00 0.00 41 1007.2
20260505230512 23 177 6.4 33.8 319.79 0.00 0.00 41 1007.2
20260505230013 23 217 9.7 32.2 319.79 0.00 0.00 40 1007.0
20260505225012 24 190 14.5 29.0 319.79 0.00 0.00 38 1007.0
20260505224513 25 181 9.7 19.3 319.79 0.00 0.00 38 1006.9
20260505224012 25 197 4.8 17.7 319.79 0.00 0.00 38 1006.8
20260505223512 25 210 12.9 25.7 319.79 0.00 0.00 36 1006.7
20260505223013 25 203 8.0 22.5 319.79 0.00 0.00 37 1006.5
20260505222512 26 240 12.9 38.6 319.79 0.00 0.00 35 1006.4
20260505221512 26 194 14.5 30.6 319.79 0.00 0.00 33 1006.2
20260505221012 26 181 19.3 30.6 319.79 0.00 0.00 32 1006.1
20260505220512 26 170 11.3 24.1 319.79 0.00 0.00 32 1006.0
20260505220013 26 212 9.7 29.0 319.79 0.00 0.00 31 1005.8
20260505215512 26 198 8.0 35.4 319.79 0.00 0.00 31 1005.8
20260505215012 26 276 17.7 30.6 319.79 0.00 0.00 32 1006.0
20260505214513 26 198 9.7 35.4 319.79 0.00 0.00 30 1006.0
20260505214012 26 207 16.1 43.5 319.79 0.00 0.00 29 1005.9
20260505213512 26 205 8.0 37.0 319.79 0.00 0.00 29 1005.8
20260505213012 26 187 19.3 37.0 319.79 0.00 0.00 28 1005.8
20260505212512 27 194 11.3 29.0 319.79 0.00 0.00 27 1005.7
20260505212012 27 186 9.7 45.1 319.79 0.00 0.00 29 1005.6
20260505211513 27 297 6.4 37.0 319.79 0.00 0.00 27 1005.6
20260505211012 27 184 17.7 37.0 319.79 0.00 0.00 26 1005.5
20260505210012 27 194 8.0 41.8 319.79 0.00 0.00 27 1005.4
20260505205512 27 225 17.7 32.2 319.79 0.00 0.00 24 1005.4
20260505205012 27 198 8.0 48.3 319.79 0.00 0.00 25 1005.5
20260505204612 27 188 19.3 45.1 319.79 0.00 0.00 24 1005.5
20260505204512 27 188 19.3 45.1 319.79 0.00 0.00 24 1005.5
20260505204012 28 300 9.7 41.8 319.79 0.00 0.00 25 1005.5
20260505203512 28 188 9.7 41.8 319.79 0.00 0.00 23 1005.6
20260505203012 28 186 8.0 37.0 319.79 0.00 0.00 23 1005.5
20260505202512 28 222 12.9 40.2 319.79 0.00 0.00 25 1005.5
20260505202013 28 159 11.3 56.3 319.79 0.00 0.00 24 1005.5
20260505201513 28 264 12.9 30.6 319.79 0.00 0.00 24 1005.5
20260505201012 27 240 14.5 27.4 319.79 0.00 0.00 25 1005.5
20260505200512 28 180 11.3 25.7 319.79 0.00 0.00 24 1005.7
20260505200012 28 219 14.5 27.4 319.79 0.00 0.00 24 1005.7
20260505195512 28 165 8.0 46.7 319.79 0.00 0.00 25 1005.5
20260505194512 28 211 12.9 30.6 319.79 0.00 0.00 24 1005.7
20260505194012 28 194 14.5 48.3 319.79 0.00 0.00 24 1005.7
20260505193012 28 221 17.7 37.0 319.79 0.00 0.00 25 1005.7
20260505192512 28 201 8.0 43.5 319.79 0.00 0.00 28 1005.6
20260505192013 28 212 19.3 40.2 319.79 0.00 0.00 24 1005.7
20260505191512 28 165 14.5 41.8 319.79 0.00 0.00 26 1005.8
20260505191012 28 180 11.3 37.0 319.79 0.00 0.00 26 1005.8
20260505190012 28 208 14.5 45.1 319.79 0.00 0.00 26 1006.0
20260505185512 28 194 20.9 35.4 319.79 0.00 0.00 25 1006.1
20260505185012 28 187 12.9 40.2 319.79 0.00 0.00 25 1006.2
20260505184512 28 190 11.3 40.2 319.79 0.00 0.00 28 1006.2
20260505184012 28 188 12.9 43.5 319.79 0.00 0.00 28 1006.3
20260505183012 27 179 12.9 35.4 319.79 0.00 0.00 31 1006.5
20260505182511 27 173 14.5 35.4 319.79 0.00 0.00 32 1006.5
20260505182012 27 141 14.5 35.4 319.79 0.00 0.00 29 1006.6
20260505181512 27 212 12.9 30.6 319.79 0.00 0.00 31 1006.5
20260505181011 27 167 6.4 32.2 319.79 0.00 0.00 34 1006.7
20260505180511 27 198 19.3 40.2 319.79 0.00 0.00 31 1006.9
20260505180012 27 145 16.1 20.9 319.79 0.00 0.00 31 1006.9
20260505175511 27 134 11.3 27.4 319.79 0.00 0.00 30 1007.0
20260505175014 27 176 8.0 25.7 319.79 0.00 0.00 33 1007.1
20260505174512 27 187 12.9 30.6 319.79 0.00 0.00 31 1007.1
20260505174014 27 210 16.1 30.6 319.79 0.00 0.00 32 1007.2
20260505173511 26 132 14.5 32.2 319.79 0.00 0.00 32 1007.1
20260505173013 26 224 9.7 32.2 319.79 0.00 0.00 33 1007.1
20260505172511 26 204 14.5 41.8 319.79 0.00 0.00 32 1007.2
20260505172011 26 197 12.9 20.9 319.79 0.00 0.00 31 1007.2
20260505171513 26 198 12.9 29.0 319.79 0.00 0.00 30 1007.3
20260505170512 26 183 8.0 27.4 319.79 0.00 0.00 33 1007.6
20260505170012 26 177 11.3 17.7 319.79 0.00 0.00 31 1007.6
20260505165512 26 212 9.7 32.2 319.79 0.00 0.00 32 1007.7
20260505165011 26 217 17.7 37.0 319.79 0.00 0.00 30 1007.9
20260505164512 26 201 16.1 30.6 319.79 0.00 0.00 31 1007.9
20260505164012 26 193 9.7 27.4 319.79 0.00 0.00 32 1007.9
20260505163511 26 195 6.4 27.4 319.79 0.00 0.00 33 1008.0
20260505163012 26 167 14.5 24.1 319.79 0.00 0.00 34 1008.0
20260505162511 26 252 16.1 25.7 319.79 0.00 0.00 35 1008.1
20260505162011 26 215 9.7 27.4 319.79 0.00 0.00 33 1008.1
20260505161512 26 264 11.3 27.4 319.79 0.00 0.00 32 1008.1
20260505161011 26 203 9.7 19.3 319.79 0.00 0.00 31 1008.3
20260505160511 25 163 8.0 20.9 319.79 0.00 0.00 35 1008.3
20260505153012 24 163 4.8 16.1 319.79 0.00 0.00 40 1009.2
20260505152511 23 169 11.3 16.1 319.79 0.00 0.00 42 1009.4
20260505152011 23 179 6.4 16.1 319.79 0.00 0.00 42 1009.4
20260505151512 23 198 8.0 14.5 319.79 0.00 0.00 42 1009.5
20260505151012 23 231 6.4 14.5 319.79 0.00 0.00 45 1009.4
20260505150512 22 203 6.4 14.5 319.79 0.00 0.00 46 1009.4